Grazzanise, Italy

6:12 AM CET on February 20, 2017 (GMT +0100)
Grazzanise Mil

Weather History for LIRM - February, 2013

Change the Weather History Date:

Saturday, February 23, 2013

  Actual Average (LIRN) Record (LIRN)
Temperature  
Mean Temperature 47 °F -  
Max Temperature 55 °F 59 °F 64 °F (2008)
Min Temperature 39 °F 41 °F 32 °F (2005)
Degree Days  
Heating Degree Days 18    
Moisture  
Dew Point 46 °F    
Average Humidity 84    
Maximum Humidity 93    
Minimum Humidity 72    
Precipitation  
Precipitation 0.00 in 0.10 in - ()
Sea Level Pressure  
Sea Level Pressure 29.57 in    
Wind  
Wind Speed 9 mph ()    
Max Wind Speed 21 mph    
Max Gust Speed 32 mph    
Visibility 6.1 miles    
Events Rain    
Averages and records for this station are not official NWS values.
T = Trace of Precipitation, MM = Missing Value Source: Averaged Metar Reports

Daily Weather History Graph

Daily Weather History Graph

Search for Another Location

Airport or City:

Trip Planner

Search our weather history database for the weather conditions in past years. The results will help you decide how hot, cold, wet, or windy it might be!

Date:

Astronomy

Feb. 23, 2013 Rise Set
Actual Time 6:47 AM CET 5:47 PM CET
Civil Twilight 6:19 AM CET 6:15 PM CET
Nautical Twilight 5:47 AM CET 6:47 PM CET
Astronomical Twilight 5:15 AM CET 7:19 PM CET
Moon 3:40 PM CET (2/23) 4:59 AM CET (2/23)
Length of Visible Light 11h 56m
Length of Day
11h 00m
Waxing Gibbous, 94% of the Moon is Illuminated
Feb 23
Waxing Gibbous
Feb 25
Full
Mar 4
Last Quarter
Mar 11
New
Mar 19
First Quarter

Hourly Weather History & Observations

Time (CET) Temp. Windchill Dew Point Humidity Pressure Visibility Wind Dir Wind Speed Gust Speed Precip Events Conditions
12:55 AM 53.6 °F - 46.4 °F 77% 29.53 in 4.3 mi West 8.1 mph - N/A   Mostly Cloudy
1:00 AM 53 °F - 47 °F 75% 29.54 in 4 mi West 8.1 mph - -   Overcast
1:55 AM 51.8 °F - 46.4 °F 82% 29.53 in 5.0 mi West 11.5 mph - N/A   Mostly Cloudy
2:55 AM 50.0 °F - 44.6 °F 82% 29.56 in 6.2 mi West 8.1 mph - N/A   Partly Cloudy
3:55 AM 50.0 °F - 44.6 °F 82% 29.56 in 6.2 mi West 8.1 mph - N/A   Scattered Clouds
4:00 AM 50 °F - 44 °F 72% 29.57 in 7 mi West 8.1 mph - -   Partly Cloudy
4:55 AM 44.6 °F 43.1 °F 41.0 °F 87% 29.56 in 6.2 mi West 3.5 mph - N/A   Partly Cloudy
5:55 AM 41.0 °F 38.0 °F 39.2 °F 93% 29.59 in - SSE 4.6 mph - N/A   Clear
6:55 AM 39.2 °F 37.0 °F 35.6 °F 87% 29.59 in 6.2 mi SE 3.5 mph - N/A   Scattered Clouds
7:00 AM 40 °F - 36 °F 82% 29.60 in 7 mi SE 3.5 mph - -  
7:55 AM 41.0 °F 38.0 °F 35.6 °F 81% 29.62 in 6.2 mi East 4.6 mph - N/A   Partly Cloudy
8:55 AM 48.2 °F - 44.6 °F 87% 29.65 in 6.2 mi East 4.6 mph - N/A   Mostly Cloudy
9:55 AM 50.0 °F - 44.6 °F 82% 29.65 in 6.2 mi East 5.8 mph - N/A   Mostly Cloudy
10:00 AM 50 °F - 45 °F 78% 29.66 in 11 mi East 5.8 mph - -   Overcast
10:55 AM 51.8 °F - 48.2 °F 88% 29.65 in 6.2 mi East 6.9 mph - N/A   Mostly Cloudy
11:55 AM 53.6 °F - 48.2 °F 82% 29.62 in 6.2 mi SE 10.4 mph - N/A Rain Light Rain
12:55 PM 53.6 °F - 50.0 °F 88% 29.56 in 6.2 mi SE 13.8 mph - N/A   Light Drizzle
1:00 PM 54 °F - 50 °F 82% 29.58 in 10 mi SE 13.8 mph - -   Overcast
1:55 PM 55.4 °F - 51.8 °F 88% 29.56 in 6.2 mi SSE 12.7 mph - N/A   Light Drizzle
2:55 PM 55.4 °F - 50.0 °F 82% 29.50 in 6.2 mi SE 19.6 mph - N/A   Mostly Cloudy
3:55 PM 53.6 °F - 50.0 °F 88% 29.47 in 6.2 mi SSE 19.6 mph 31.1 mph N/A Rain Light Rain
4:00 PM 54 °F - 49 °F 79% 29.50 in 6 mi SSE 19.6 mph - - Rain Light Rain
4:55 PM 53.6 °F - 50.0 °F 88% 29.50 in 3.7 mi SSW 17.3 mph - N/A Rain Light Rain
5:02 PM 53.6 °F - 50.0 °F 88% 29.50 in 1.9 mi SW 20.7 mph 32.2 mph N/A Rain Rain
5:24 PM 53.6 °F - 50.0 °F 88% 29.53 in 3.7 mi SSW 15.0 mph - N/A Rain Light Rain
5:55 PM 51.8 °F - 48.2 °F 88% 29.53 in 6.2 mi SSW 16.1 mph - N/A Rain Light Rain
6:55 PM 51.8 °F - 48.2 °F 88% 29.53 in 6.2 mi South 11.5 mph - N/A   Mostly Cloudy
7:00 PM 52 °F - 47 °F 79% 29.54 in 7 mi South 11.5 mph - -   Overcast
7:55 PM 53.6 °F - 48.2 °F 82% 29.56 in 6.2 mi SSW 12.7 mph - N/A   Mostly Cloudy
8:55 PM 53.6 °F - 50.0 °F 88% 29.59 in 6.2 mi SSW 16.1 mph - N/A   Mostly Cloudy
9:55 PM 53.6 °F - 50.0 °F 88% 29.59 in 6.2 mi SSW 12.7 mph - N/A Rain Light Rain
10:00 PM 54 °F - 49 °F 79% 29.60 in 6 mi SSW 12.7 mph - - Rain Light Rain
10:55 PM 51.8 °F - 48.2 °F 88% 29.59 in 6.2 mi SSW 11.5 mph - N/A   Scattered Clouds
11:55 PM 51.8 °F - 48.2 °F 88% 29.62 in 6.2 mi SSW 12.7 mph - N/A   Mostly Cloudy